Home   Weather   Langevåg   Past weeks

Flag for Norway Past Weather in Langevåg, Norway — Yesterday and Last 2 Weeks

Now
41 °F

Scattered showers. Broken clouds.


Feels Like: 35 °F
Forecast: 35 / 45 °F
Wind: 10 mph from West

Location: Alesund / Vigra

Current Time: Jan 23, 2017 at 3:48:20 pm

Latest Report: Jan 23, 2017 at 3:20 pm


Visibility: N/A

Pressure: 30.04 "Hg

Humidity: 81%

Dew Point: 36 °F

Location of LangevågLocation

Past Weather in Langevåg — Graph

°F

Langevåg Temperature Yesterday

Maximum temperature yesterday: 46 °F (at 6:50 am)
Minimum temperature yesterday: 43 °F (at 12:50 am)
Average temperature yesterday: 44 °F

High & Low Weather Summary for the Past Weeks

 TemperatureHumidityPressure
High50 °F (Jan 9, 9:20 pm)100% (Jan 13, 10:20 am)30.39 "Hg (Jan 13, 10:20 am)
Low27 °F (Jan 15, 4:20 am)48% (Jan 16, 4:20 pm)28.56 "Hg (Jan 12, 4:50 am)
Average41 °F82%29.76 "Hg
* Reported Jan 8 2:20 pm — Jan 23 2:20 pm, Langevåg, Weather by CustomWeather, © 2017

Note: Actual official high and low records may vary slightly from our data, if they occured in-between our weather recording intervals... More about our weather records

Advertising

Langevåg Weather History for the Previous 24 Hours

Scroll right to see more
 ConditionsComfort  
Time TempWeatherWind HumidityBarometerVisibility
2:20 pm
Mon, Jan 23
41 °FBroken clouds.12 mph87%30.01 "HgN/A
1:50 pm43 °FPartly sunny.9 mph81%30.04 "HgN/A
1:20 pm41 °FBroken clouds.9 mph81%30.04 "HgN/A
12:50 pm43 °FScattered showers. Broken clouds.8 mph76%30.01 "HgN/A
12:20 pm43 °FScattered showers. Partly sunny.12 mph76%30.01 "HgN/A
11:50 am43 °FScattered showers. Partly sunny.16 mph76%30.01 "HgN/A
11:20 am43 °FPartly sunny.12 mph76%30.01 "HgN/A
10:50 am41 °FDrizzle. Broken clouds.15 mph76%30.01 "HgN/A
10:20 am43 °FScattered showers. Partly sunny.12 mph71%30.01 "HgN/A
9:50 am43 °FScattered showers. Partly sunny.13 mph76%30.01 "HgN/A
9:20 am41 °FLight rain. Partly cloudy.15 mph81%29.98 "HgN/A
8:50 am41 °FPartly cloudy.14 mph87%29.98 "HgN/A
8:20 am41 °FLight rain. Passing clouds.15 mph87%29.98 "HgN/A
7:50 am41 °FPassing clouds.15 mph87%29.98 "HgN/A
7:20 am41 °FPartly cloudy.18 mph93%29.98 "HgN/A
6:50 am41 °FLight rain. Partly cloudy.14 mph93%29.98 "HgN/A
6:20 am43 °FLight rain. Partly cloudy.16 mph87%29.98 "HgN/A
5:50 am43 °FPassing clouds.17 mph81%29.98 "HgN/A
5:20 am43 °FLight rain. Overcast.18 mph87%29.98 "HgN/A
4:50 am43 °FPartly cloudy.17 mph81%29.95 "HgN/A
4:20 am43 °FPartly cloudy.17 mph87%29.95 "Hg4 mi
3:50 am43 °FPassing clouds.17 mph93%29.95 "HgN/A
3:20 am43 °FMostly cloudy.18 mph87%29.95 "HgN/A
2:50 am43 °FPartly cloudy.23 mph93%29.95 "HgN/A
2:20 am43 °FLight rain. Mostly cloudy.18 mph87%29.98 "Hg4 mi
1:50 am43 °FDrizzle. Mostly cloudy.25 mph87%29.98 "Hg5 mi
1:20 am43 °FDrizzle. Overcast.25 mph87%29.98 "Hg6 mi
12:50 am43 °FDrizzle. Mostly cloudy.23 mph81%29.98 "HgN/A
12:20 am43 °FMostly cloudy.23 mph81%29.98 "HgN/A
11:50 pm
Sun, Jan 22
43 °FMostly cloudy.22 mph81%29.98 "HgN/A
11:20 pm43 °FPassing clouds.22 mph81%29.98 "HgN/A
10:50 pm43 °FPassing clouds.24 mph81%30.01 "HgN/A
10:20 pm43 °FPassing clouds.22 mph81%30.01 "HgN/A
9:50 pm43 °FPartly cloudy.22 mph81%30.01 "HgN/A
9:20 pm43 °FPassing clouds.22 mph76%30.01 "HgN/A
8:50 pm43 °FPassing clouds.20 mph81%30.01 "HgN/A
8:20 pm43 °FLight rain. Partly cloudy.20 mph81%30.01 "HgN/A
7:50 pm43 °FPassing clouds.20 mph87%30.04 "HgN/A
7:20 pm43 °FPassing clouds.18 mph81%30.04 "HgN/A
6:50 pm43 °FLight rain. Passing clouds.17 mph81%30.04 "HgN/A
6:20 pm43 °FPassing clouds.17 mph81%30.04 "HgN/A
5:50 pm45 °FPassing clouds.20 mph76%30.04 "HgN/A
5:20 pm45 °FPassing clouds.18 mph76%30.07 "HgN/A
4:50 pm45 °FPartly cloudy.20 mph76%30.07 "HgN/A
4:20 pm45 °FPartly cloudy.15 mph76%30.07 "HgN/A
3:50 pm45 °FDrizzle. Broken clouds.18 mph76%30.07 "HgN/A
3:20 pm45 °FPartly sunny.16 mph76%30.09 "HgN/A
Weather by CustomWeather, © 2017

See weather overviewHow to use our weather pages